Wind_Speed
46 46 49 58 61 61 58 54 52 52 51 54 52 52 51 52 50 46 42 43 41 37 35 32 31 26 22 17 11 11 7 8 9 3 11 13 9 13 13 19 16 26 32 33 37
44 46 50 56 61 62 61 57 55 53 50 51 53 53 53 53 51 49 47 47 45 43 38 37 33 31 28 22 19 15 4 14 9 7 11 5 9 16 18 28 16 25 27 28 32
43 45 49 54 61 62 63 62 59 56 53 52 54 54 52 54 54 52 50 49 51 49 45 41 38 34 32 30 27 22 21 21 18 15 11 7 10 12 10 17 11 20 27 25 27
40 44 49 54 59 64 64 65 63 60 55 54 54 54 55 55 54 53 52 51 52 52 49 46 40 37 36 37 33 30 28 24 22 17 15 10 11 11 9 3 6 18 25 25 24
40 42 46 54 60 65 66 65 65 63 59 55 58 57 57 58 58 57 55 52 52 54 54 52 46 41 39 40 39 35 33 28 25 23 20 16 11 12 14 6 1 20 26 23 21
41 42 42 50 61 67 69 68 67 67 64 59 58 60 59 62 56 57 58 58 56 59 60 58 51 48 45 43 44 42 39 37 34 31 28 19 15 8 7 19 10 21 17 18 20
45 44 44 47 57 67 72 71 69 70 68 65 65 63 64 62 57 58 61 63 64 62 61 61 57 52 49 48 48 50 44 43 39 36 33 28 21 18 20 14 19 16 12 19 21
49 49 48 49 52 62 73 74 73 72 71 70 69 68 68 60 61 63 62 62 64 63 61 59 60 57 52 53 52 50 50 47 42 39 38 36 27 23 24 23 18 16 21 19 21
49 54 55 55 56 58 70 76 77 76 74 73 75 75 72 67 66 65 65 65 65 64 62 58 60 58 56 57 57 56 53 50 47 44 43 40 34 30 27 29 28 29 32 29 21
48 54 59 61 61 62 67 74 80 81 80 79 78 78 76 74 72 70 72 69 68 67 65 60 60 60 55 55 61 59 59 55 53 49 45 42 39 39 32 33 34 35 35 32 23
52 53 58 67 67 67 69 72 79 84 85 84 83 81 80 78 77 75 75 74 71 67 66 63 62 60 63 62 60 61 61 61 56 51 49 47 45 42 38 36 36 36 39 36 31
60 61 62 67 73 74 75 76 79 82 86 89 87 87 84 81 80 78 80 76 74 71 71 66 61 65 65 63 61 58 60 61 58 54 51 47 46 45 45 42 41 40 39 36 34
68 70 70 72 74 78 80 80 80 82 86 92 92 92 90 87 86 84 82 81 78 77 73 69 68 72 69 66 62 57 59 61 59 55 53 50 48 45 48 48 42 38 40 38 34
69 76 80 79 80 82 85 85 85 85 88 95 96 96 94 91 90 87 84 84 83 80 80 75 73 74 71 66 63 58 60 59 58 53 50 49 46 44 45 46 44 41 42 41 35
62 72 81 87 89 87 89 90 92 91 92 93 94 97 96 92 91 90 91 87 85 83 81 76 76 77 75 70 68 64 65 62 58 53 49 48 47 45 42 42 42 42 40 41 42
60 69 78 84 90 97 97 95 96 98 99 98 96 93 94 93 94 97 93 90 90 88 82 81 80 79 77 77 72 70 66 61 58 55 50 49 47 44 40 39 38 39 38 40 42
52 57 66 79 86 89 94 101 102 102 102 103 101 98 96 93 93 94 93 91 90 89 86 83 83 81 80 79 74 71 66 62 59 55 52 49 47 45 40 39 37 37 38 39 41
54 52 56 60 68 79 87 95 100 105 106 108 107 105 103 100 96 95 93 88 86 86 86 84 82 81 80 78 76 76 71 64 59 55 58 50 48 46 39 34 35 36 36 36 37
58 50 48 50 49 62 73 81 90 100 107 113 111 111 110 107 103 102 98 95 90 86 84 81 78 81 79 79 80 75 71 65 62 59 58 50 54 46 41 39 37 36 37 33 32
63 55 45 41 41 44 57 70 78 89 101 108 116 116 114 113 111 109 107 100 96 93 88 85 81 82 83 83 83 76 73 70 64 59 56 52 55 48 46 42 39 39 37 33 31
64 59 53 37 35 32 40 50 64 77 89 104 110 115 120 118 115 115 113 108 104 99 94 91 87 86 83 81 81 79 74 70 65 61 59 57 56 54 49 46 42 42 39 38 32
63 64 61 49 29 29 29 39 47 61 74 88 102 111 116 119 121 119 116 114 111 106 103 99 94 90 88 88 87 83 77 74 69 64 64 60 58 58 55 50 46 44 43 40 40
62 68 65 60 40 23 26 29 36 46 58 75 88 100 111 115 117 121 122 118 115 112 109 105 102 98 96 93 90 86 82 79 72 68 63 62 61 61 59 55 51 47 46 45 42
55 64 69 67 54 30 20 26 31 37 46 58 72 87 98 109 114 115 118 121 120 116 113 111 106 103 100 97 99 95 90 86 81 72 67 62 64 64 62 59 55 53 52 49 44
54 62 66 64 58 49 24 19 26 35 42 50 58 70 84 97 106 113 116 117 118 120 119 115 112 109 104 104 104 100 97 93 87 80 72 70 68 69 65 64 61 59 58 54 51
54 61 66 62 60 51 42 26 19 26 37 48 55 61 70 83 94 105 113 117 117 117 119 121 119 114 110 110 108 105 102 100 95 87 79 75 72 74 70 68 66 64 62 59 55
52 58 66 65 60 56 43 35 30 22 29 38 49 58 65 72 82 92 104 113 116 118 116 116 120 120 116 114 113 110 107 104 99 94 87 82 78 77 76 72 69 67 66 64 63
Wind_Direction
220 216 211 209 209 210 207 208 209 207 208 211 213 216 219 220 221 221 225 227 227 231 227 220 215 216 228 227 238 225 256 232 143 258 302 327 38 3 1 2 7 21 15 13 17
220 219 213 211 210 212 210 210 212 212 210 212 214 216 218 221 223 223 224 229 230 230 233 230 224 224 222 233 237 238 194 170 170 304 312 332 22 3 0 350 11 24 19 16 12
222 221 216 212 211 212 213 212 212 212 214 215 216 216 219 222 224 226 226 229 231 234 235 234 229 235 226 232 238 241 234 228 244 268 286 302 326 360 355 348 13 12 14 15 10
222 220 215 212 212 212 215 214 214 216 216 218 217 218 218 221 224 225 228 231 232 234 234 237 239 240 239 235 241 245 248 246 249 260 266 264 293 318 315 71 36 3 356 10 6
225 221 218 215 213 214 215 217 217 218 217 219 219 220 220 221 222 226 227 228 232 235 236 236 240 242 245 239 239 242 246 254 259 261 265 268 275 308 314 273 335 327 328 348 359
229 225 222 217 215 214 216 217 219 220 220 221 223 223 225 225 223 224 226 227 229 233 238 239 242 244 243 244 239 239 244 252 258 264 265 270 275 278 287 283 274 311 309 329 353
230 227 226 222 218 216 217 218 221 221 221 222 224 225 226 225 226 228 228 231 230 232 236 238 241 245 246 246 242 243 240 252 259 265 269 270 271 263 252 247 277 289 276 296 334
235 231 228 226 223 219 219 220 221 223 223 225 225 228 229 226 228 231 231 233 234 235 235 238 242 244 244 248 244 247 244 250 259 265 265 266 267 260 262 252 238 244 262 283 311
241 237 232 228 224 223 221 221 223 225 225 226 227 229 229 227 229 232 233 234 234 236 236 237 239 242 245 247 249 249 248 251 257 261 263 264 264 261 254 255 253 254 265 275 285
244 241 238 234 228 225 225 224 223 226 228 229 229 231 231 229 230 232 235 232 234 235 236 237 238 242 244 247 248 250 251 252 256 258 261 263 264 263 255 248 250 253 259 269 277
248 244 242 238 234 231 228 225 226 226 228 230 232 233 232 231 231 234 236 236 235 237 238 237 239 240 241 244 248 250 253 255 256 256 259 262 263 263 260 255 255 254 255 260 265
251 247 243 240 237 234 232 228 227 227 229 230 231 233 233 233 233 234 238 238 238 239 239 238 240 241 242 243 245 249 252 254 255 257 257 259 263 263 262 263 262 257 251 254 257
253 251 248 245 240 238 236 234 231 229 230 229 231 234 233 234 234 234 237 238 238 239 240 240 242 242 242 244 246 248 252 251 254 256 257 259 261 262 263 263 260 256 245 244 250
257 255 252 248 245 240 237 236 234 232 232 234 230 234 234 234 237 236 236 238 238 238 240 240 243 243 243 243 246 248 250 251 251 254 258 258 257 255 258 259 258 254 248 242 243
265 261 257 252 248 244 241 236 235 234 234 234 234 234 236 235 238 238 238 238 240 238 239 241 241 243 243 244 244 245 247 249 249 249 251 252 251 251 249 254 254 254 247 243 237
272 266 261 258 253 248 243 239 236 234 234 235 235 235 236 236 236 239 239 239 242 242 240 241 243 244 246 245 245 246 247 249 249 249 247 249 250 250 248 245 246 247 247 245 241
288 280 268 260 256 251 247 243 238 235 235 236 235 235 234 235 235 238 238 237 239 242 243 242 242 244 246 247 245 247 247 246 248 248 245 246 245 245 244 247 245 246 249 248 247
311 307 287 268 258 253 247 243 239 237 235 234 233 232 234 234 234 235 237 237 237 238 241 240 241 243 243 244 244 244 243 242 240 238 241 240 240 241 241 244 247 248 248 246 248
324 324 303 284 266 253 247 243 238 235 234 234 233 231 232 231 232 233 234 235 235 236 237 237 237 239 241 241 242 242 242 239 238 236 240 237 239 237 236 236 240 246 248 247 234
331 338 327 300 284 263 249 240 237 234 232 232 232 230 230 230 230 231 232 233 233 234 234 236 235 237 238 239 242 242 239 240 239 236 237 235 240 235 233 234 237 241 244 245 238
337 343 345 326 299 279 257 247 238 233 231 229 230 231 230 229 230 230 231 231 231 232 233 234 234 235 238 241 241 242 241 239 238 237 235 233 236 234 233 230 234 239 242 244 244
344 347 350 347 324 296 264 252 241 234 232 230 229 229 230 229 229 230 231 231 231 231 231 232 232 233 234 235 238 240 239 238 235 231 232 231 233 235 233 231 232 239 242 240 241
350 352 352 351 342 319 289 260 249 240 233 231 231 229 229 230 230 230 230 231 231 231 231 230 230 231 233 235 236 238 239 239 237 234 232 232 232 234 233 231 233 237 240 240 243
353 354 353 351 350 340 313 277 254 243 237 234 232 230 229 228 229 230 231 231 231 230 230 231 230 230 231 232 235 236 236 236 236 233 233 233 235 233 235 234 234 236 243 242 239
350 357 355 352 349 345 334 303 269 251 239 236 234 231 228 229 228 229 230 230 230 231 230 231 230 229 230 231 234 235 236 236 235 231 228 228 232 236 232 234 234 235 240 242 242
355 0 357 353 350 345 343 323 291 265 252 241 236 232 230 228 228 227 227 230 230 230 229 230 230 230 229 231 233 233 235 236 237 235 230 228 226 233 232 230 232 236 240 242 244
354 4 4 1 352 348 350 333 315 287 262 251 243 238 233 228 227 226 228 226 228 230 230 230 230 229 229 231 232 233 234 236 236 236 233 231 229 228 233 231 230 232 238 243 244
Height
10884 10889 10895 10901 10907 10914 10920 10926 10931 10935 10940 10946 10950 10955 10959 10964 10970 10977 10980 10981 10986 10990 10994 10999 11002 11006 11007 11009 11011 11013 11013 11016 11017 11019 11019 11019 11020 11020 11020 11018 11017 11016 11014 11010 11007
10878 10882 10888 10894 10900 10907 10914 10919 10925 10930 10935 10939 10944 10949 10953 10959 10965 10971 10974 10977 10981 10985 10989 10993 10999 11003 11006 11006 11009 11012 11013 11015 11016 11020 11020 11020 11020 11020 11022 11020 11020 11019 11017 11014 11011
10872 10876 10880 10886 10893 10900 10906 10912 10918 10923 10928 10933 10937 10942 10947 10953 10959 10963 10968 10972 10975 10981 10985 10989 10994 10999 11003 11004 11005 11009 11010 11014 11016 11019 11019 11020 11020 11020 11022 11022 11022 11020 11018 11017 11015
10865 10869 10873 10879 10886 10892 10898 10904 10910 10916 10922 10927 10930 10935 10940 10946 10951 10955 10962 10966 10969 10974 10979 10984 10989 10994 10997 11000 11001 11004 11008 11011 11014 11017 11018 11019 11019 11021 11020 11023 11022 11020 11019 11019 11018
10859 10863 10867 10871 10877 10884 10890 10897 10903 10908 10914 10918 10923 10927 10932 10936 10943 10949 10954 10958 10962 10966 10971 10976 10982 10988 10990 10994 10997 11001 11005 11007 11011 11013 11015 11018 11018 11018 11019 11022 11020 11021 11020 11021 11020
10853 10857 10860 10863 10869 10875 10882 10888 10893 10899 10905 10910 10914 10919 10922 10926 10937 10940 10945 10949 10953 10958 10962 10969 10976 10980 10983 10988 10993 10995 11000 11002 11006 11009 11012 11016 11017 11018 11019 11020 11020 11020 11022 11021 11022
10847 10850 10853 10855 10860 10867 10872 10878 10884 10887 10894 10899 10903 10908 10910 10921 10928 10930 10934 10938 10944 10951 10956 10963 10969 10973 10977 10981 10985 10988 10995 10997 11001 11005 11007 11010 11014 11017 11018 11020 11020 11020 11022 11019 11022
10839 10842 10845 10847 10852 10857 10861 10868 10872 10876 10884 10889 10893 10896 10899 10916 10917 10918 10925 10929 10935 10943 10950 10956 10960 10964 10969 10970 10977 10982 10988 10992 10996 10999 11001 11006 11011 11013 11015 11017 11017 11017 11019 11021 11020
10830 10833 10835 10837 10841 10845 10849 10857 10862 10866 10872 10876 10880 10883 10890 10901 10905 10910 10913 10916 10925 10932 10941 10947 10951 10957 10960 10963 10969 10973 10979 10986 10990 10993 10996 11001 11005 11008 11011 11013 11015 11015 11016 11020 11021
10820 10822 10825 10827 10830 10833 10836 10843 10848 10854 10858 10861 10865 10868 10878 10886 10892 10895 10896 10906 10911 10919 10929 10936 10941 10945 10950 10952 10957 10964 10969 10978 10982 10986 10989 10993 10999 11002 11006 11007 11010 11013 11014 11014 11019
10806 10809 10811 10812 10816 10818 10821 10827 10832 10838 10842 10848 10853 10857 10864 10872 10881 10883 10886 10893 10903 10911 10919 10926 10931 10934 10935 10943 10949 10954 10959 10967 10972 10978 10983 10987 10991 10995 10999 11003 11005 11008 11010 11010 11014
10791 10792 10793 10792 10797 10801 10804 10810 10815 10823 10826 10830 10836 10838 10849 10858 10866 10871 10872 10882 10891 10898 10902 10914 10920 10917 10925 10934 10942 10946 10949 10956 10963 10969 10975 10981 10983 10987 10991 10995 10999 11001 11003 11006 11009
10774 10773 10775 10775 10779 10782 10785 10792 10799 10806 10809 10810 10817 10820 10832 10842 10848 10856 10860 10868 10877 10882 10891 10900 10901 10907 10917 10926 10933 10939 10939 10947 10954 10962 10966 10972 10976 10978 10981 10985 10991 10995 10997 11000 11004
10754 10753 10752 10756 10758 10759 10764 10772 10779 10785 10788 10788 10799 10802 10814 10826 10832 10841 10848 10852 10862 10872 10875 10885 10890 10897 10905 10916 10921 10927 10928 10937 10945 10953 10958 10962 10968 10971 10972 10977 10982 10986 10990 10993 10998
10736 10731 10726 10728 10730 10735 10740 10749 10755 10763 10765 10769 10779 10790 10799 10813 10818 10825 10829 10838 10846 10855 10863 10874 10878 10880 10890 10900 10907 10913 10919 10928 10936 10945 10950 10951 10956 10961 10965 10968 10973 10977 10982 10986 10991
10713 10705 10698 10696 10698 10703 10709 10718 10728 10736 10741 10749 10757 10771 10779 10791 10797 10799 10814 10824 10829 10835 10853 10858 10863 10869 10876 10884 10896 10901 10911 10920 10927 10936 10940 10943 10948 10952 10956 10961 10966 10970 10974 10980 10984
10689 10678 10666 10663 10663 10668 10674 10685 10697 10708 10719 10725 10737 10749 10756 10767 10775 10779 10792 10804 10812 10819 10832 10845 10851 10855 10861 10868 10882 10888 10899 10909 10916 10925 10928 10936 10940 10944 10949 10954 10958 10961 10965 10971 10976
10668 10654 10637 10632 10630 10630 10636 10645 10659 10679 10689 10697 10709 10721 10731 10745 10755 10761 10770 10784 10796 10803 10809 10824 10835 10840 10847 10853 10864 10869 10881 10895 10904 10910 10912 10926 10930 10936 10944 10948 10949 10952 10957 10961 10966
10648 10634 10614 10603 10601 10599 10602 10610 10625 10637 10649 10664 10677 10693 10704 10718 10731 10738 10750 10759 10772 10785 10793 10804 10819 10822 10828 10833 10840 10855 10870 10881 10890 10897 10903 10917 10917 10930 10935 10939 10944 10948 10950 10954 10959
10631 10616 10598 10584 10578 10575 10576 10582 10590 10604 10616 10629 10639 10659 10673 10688 10702 10713 10720 10739 10751 10763 10776 10786 10799 10803 10809 10814 10823 10840 10851 10863 10878 10889 10896 10906 10907 10920 10925 10930 10937 10939 10943 10948 10953
10619 10603 10586 10572 10562 10558 10556 10558 10566 10574 10585 10598 10610 10627 10641 10657 10671 10683 10695 10714 10728 10743 10756 10766 10779 10786 10796 10806 10812 10822 10836 10850 10865 10877 10885 10892 10898 10906 10914 10922 10927 10931 10936 10941 10944
10612 10594 10577 10564 10554 10545 10543 10542 10546 10553 10563 10571 10582 10598 10611 10626 10642 10655 10673 10687 10701 10719 10732 10743 10757 10770 10777 10783 10791 10803 10819 10831 10845 10861 10869 10881 10890 10894 10903 10911 10919 10923 10927 10932 10937
10608 10589 10574 10561 10549 10541 10534 10533 10534 10538 10544 10550 10559 10571 10585 10598 10615 10628 10643 10660 10676 10693 10706 10721 10735 10748 10755 10764 10777 10788 10802 10814 10831 10845 10860 10869 10878 10882 10890 10899 10908 10912 10916 10923 10929
10608 10590 10572 10557 10547 10537 10530 10525 10524 10525 10528 10531 10538 10548 10560 10573 10589 10604 10618 10634 10649 10667 10682 10695 10715 10728 10740 10752 10751 10763 10778 10792 10807 10828 10845 10861 10865 10871 10878 10887 10896 10900 10904 10912 10921
10605 10588 10572 10558 10543 10530 10525 10519 10515 10513 10514 10515 10519 10527 10536 10548 10562 10578 10592 10606 10621 10639 10656 10671 10687 10704 10719 10725 10731 10747 10758 10770 10787 10807 10825 10839 10850 10853 10865 10874 10882 10886 10890 10897 10905
10603 10586 10571 10557 10542 10529 10517 10511 10507 10504 10502 10502 10503 10507 10514 10524 10536 10550 10563 10578 10595 10610 10626 10644 10660 10678 10695 10700 10712 10727 10737 10750 10766 10787 10806 10820 10833 10838 10848 10858 10867 10872 10878 10885 10892
10603 10586 10571 10557 10543 10527 10514 10503 10495 10494 10491 10489 10490 10492 10496 10503 10512 10524 10539 10549 10567 10584 10601 10619 10633 10652 10670 10678 10688 10701 10717 10731 10747 10766 10786 10802 10814 10824 10830 10844 10853 10861 10866 10872 10878